Change the Weather History Date:

Tuesday, May 28, 2013

  Actual Average Record
Temperature  
Mean Temperature 56 °F 63 °F  
Max Temperature 61 °F 75 °F 94 °F (1941)
Min Temperature 51 °F 52 °F 34 °F (1983)
Degree Days  
Heating Degree Days 9 4  
Month to date heating degree days 187 193  
Since 1 July heating degree days 5660 5948  
Cooling Degree Days 0 2  
Month to date cooling degree days 33 30  
Year to date cooling degree days 41 35  
Growing Degree Days 6 (Base 50)    
Moisture  
Dew Point 51 °F    
Average Humidity 82    
Maximum Humidity 93    
Minimum Humidity 71    
Precipitation  
Precipitation 0.33 in 0.11 in 1.22 in (1968)
Month to date precipitation 2.87 3.29  
Year to date precipitation 12.22 14.54  
Snow  
Snow 0.00 in - - ()
Month to date snowfall 0.0  
Since 1 July snowfall 32.7  
Snow Depth 0.00 in    
Sea Level Pressure  
Sea Level Pressure 30.13 in    
Wind  
Wind Speed 5 mph (ENE)    
Max Wind Speed 14 mph    
Max Gust Speed 24 mph    
Visibility 7 miles    
Events Rain    
T = Trace of Precipitation, MM = Missing Value Source: NWS Daily Summary

Daily Weather History Graph

Daily Weather History Graph

Search for Another Location

Airport or City:

Trip Planner

Search our weather history database for the weather conditions in past years. The results will help you decide how hot, cold, wet, or windy it might be!

Date:

Astronomy

May. 28, 2013 Rise Set
Actual Time 5:38 AM EDT 8:31 PM EDT
Civil Twilight 5:06 AM EDT 9:04 PM EDT
Nautical Twilight 4:25 AM EDT 9:45 PM EDT
Astronomical Twilight 3:37 AM EDT 10:33 PM EDT
Moon 11:52 PM EDT 9:25 AM EDT
Length of Visible Light 15h 57m
Length of Day
14h 52m
Waning Gibbous, 83% of the Moon is Illuminated
May 28
Waning Gibbous
May 31
Last Quarter
Jun 8
New
Jun 16
First Quarter
Jun 23
Full

Hourly Weather History & Observations

Time (EDT) Temp. Dew Point Humidity Pressure Visibility Wind Dir Wind Speed Gust Speed Precip Events Conditions
12:54 AM 53.1 °F 44.1 °F 71% 30.18 in 10.0 mi Calm Calm - N/A   Clear
1:54 AM 52.0 °F 44.1 °F 74% 30.17 in 10.0 mi NNE 3.5 mph - N/A   Clear
2:54 AM 52.0 °F 44.1 °F 74% 30.17 in 10.0 mi Calm Calm - N/A   Mostly Cloudy
3:54 AM 52.0 °F 45.0 °F 77% 30.15 in 10.0 mi East 5.8 mph - N/A   Overcast
4:54 AM 53.1 °F 44.1 °F 71% 30.16 in 10.0 mi Calm Calm - N/A   Scattered Clouds
5:54 AM 53.1 °F 46.0 °F 77% 30.16 in 10.0 mi Calm Calm - 0.00 in Rain Light Rain
6:54 AM 52.0 °F 46.9 °F 83% 30.16 in 10.0 mi Calm Calm - 0.00 in Rain Light Rain
7:54 AM 53.1 °F 48.0 °F 83% 30.18 in 10.0 mi East 3.5 mph - 0.01 in Rain Light Rain
8:54 AM 53.1 °F 48.9 °F 86% 30.15 in 5.0 mi East 8.1 mph - 0.04 in Rain Rain
9:16 AM 53.6 °F 48.2 °F 82% 30.16 in 6.0 mi NE 9.2 mph - 0.02 in Rain Light Rain
9:54 AM 53.1 °F 50.0 °F 89% 30.15 in 3.0 mi ENE 9.2 mph - 0.08 in Rain Rain
10:51 AM 53.6 °F 51.8 °F 94% 30.14 in 2.0 mi ENE 6.9 mph - 0.12 in Rain Rain
10:54 AM 54.0 °F 51.1 °F 90% 30.14 in 3.0 mi ENE 6.9 mph - 0.12 in Rain Light Rain
11:19 AM 53.6 °F 51.8 °F 94% 30.13 in 8.0 mi East 9.2 mph - 0.02 in Rain Light Rain
11:54 AM 54.0 °F 51.1 °F 90% 30.14 in 5.0 mi ENE 8.1 mph - 0.03 in Rain Light Rain
12:54 PM 55.9 °F 52.0 °F 87% 30.13 in 9.0 mi East 9.2 mph - 0.01 in Rain Light Rain
1:54 PM 57.0 °F 54.0 °F 89% 30.13 in 8.0 mi ENE 8.1 mph - 0.02 in Rain Light Rain
2:54 PM 57.0 °F 54.0 °F 89% 30.12 in 8.0 mi East 6.9 mph - 0.00 in   Overcast
3:32 PM 57.2 °F 53.6 °F 88% 30.11 in 7.0 mi East 5.8 mph - N/A   Overcast
3:54 PM 57.9 °F 54.0 °F 87% 30.12 in 7.0 mi ENE 8.1 mph - N/A   Overcast
4:54 PM 57.9 °F 55.0 °F 90% 30.11 in 5.0 mi ENE 5.8 mph - 0.00 in   Overcast
5:54 PM 60.1 °F 55.9 °F 86% 30.10 in 5.0 mi Calm Calm - N/A   Overcast
6:54 PM 60.1 °F 55.9 °F 86% 30.09 in 5.0 mi ESE 4.6 mph - N/A   Overcast
7:54 PM 61.0 °F 55.9 °F 83% 30.08 in 6.0 mi Variable 5.8 mph - N/A   Haze
8:54 PM 60.1 °F 57.0 °F 90% 30.07 in 6.0 mi NE 10.4 mph - N/A   Overcast
9:54 PM 61.0 °F 57.0 °F 87% 30.08 in 5.0 mi Calm Calm - N/A   Overcast
10:54 PM 60.1 °F 57.0 °F 90% 30.08 in 5.0 mi ENE 5.8 mph - N/A   Overcast
11:54 PM 59.0 °F 57.0 °F 93% 30.08 in 5.0 mi Calm Calm - 0.00 in Rain Light Rain